Presure
220 222 213 205 219 226 217 284 229 260 286 206 280 254 338 243 247 246 247 274 189 180 165 185 169 199 204 172 176 228 192 162 187 175 148 172 149 140 143 160 146 131 142 135 138
215 213 210 215 200 243 271 244 242 226 230 320 257 278 287 225 227 249 275 241 285 251 197 170 225 212 223 218 212 188 187 168 154 175 171 228 167 193 156 162 159 130 178 147 132
185 215 211 221 218 206 227 206 220 211 236 214 214 294 235 252 220 250 253 263 255 284 264 223 162 223 184 223 227 211 215 207 180 112 140 202 184 176 146 177 188 176 170 133 141
201 211 210 223 198 231 175 223 280 221 202 242 297 259 253 443 261 225 361 196 316 256 288 262 230 217 234 220 232 218 218 216 196 194 149 236 112 220 112 203 188 119 180 146 179
209 204 200 208 231 212 237 227 250 246 269 232 197 272 311 318 416 295 363 321 358 329 284 232 262 269 240 213 215 237 214 161 218 140 217 218 208 218 141 137 110 227 171 172 172
197 220 200 222 223 224 234 247 262 234 274 194 295 237 245 240 248 365 377 260 331 343 340 319 252 240 249 266 242 208 212 213 220 216 225 221 221 215 195 204 216 205 169 185 135
196 195 198 212 220 209 235 261 244 258 262 200 296 176 267 207 241 361 385 327 346 214 204 348 333 260 268 288 268 266 243 232 211 217 210 216 230 221 222 217 210 211 205 192 196
189 213 219 213 231 211 190 237 191 254 263 210 281 193 177 228 257 317 263 369 365 338 326 331 329 339 299 281 200 277 261 261 245 229 233 106 210 210 205 225 229 223 223 231 233
208 211 225 235 223 233 269 249 212 233 188 237 177 174 299 202 232 172 292 361 356 357 336 314 315 319 325 329 328 308 188 236 263 269 259 247 232 228 238 218 156 180 219 211 205
196 222 236 227 225 220 251 264 237 230 242 269 193 218 234 159 186 171 290 292 293 320 254 337 329 308 293 231 310 327 329 232 250 226 237 239 273 266 175 230 234 229 237 206 183
207 231 249 236 230 229 219 247 240 271 270 283 291 224 282 266 179 158 171 298 273 229 338 332 332 313 340 339 343 301 303 356 332 290 276 239 240 248 110 276 263 242 232 228 225
212 235 216 213 228 215 222 226 214 248 235 275 230 291 282 215 253 279 284 236 273 199 267 335 319 313 327 322 323 329 340 304 293 338 320 310 313 288 245 254 285 283 274 243 258
200 225 226 218 230 232 229 236 224 233 273 290 289 289 232 290 178 261 194 269 274 239 279 275 338 333 328 318 325 318 317 324 323 327 336 344 328 350 325 284 261 245 280 268 240
223 235 213 215 238 231 232 232 230 245 236 229 290 287 282 270 275 264 274 167 189 282 225 266 150 206 329 307 303 319 307 309 315 313 322 321 319 330 329 331 332 277 288 348 322
224 229 195 233 222 225 219 237 241 300 247 296 285 243 268 296 258 270 255 243 248 263 207 230 250 193 255 333 308 325 313 305 313 307 312 310 318 310 307 307 312 312 350 374 378
225 197 220 252 227 249 242 255 287 298 296 289 269 249 253 254 288 262 252 244 249 191 172 192 253 243 233 275 343 317 332 312 305 297 291 300 306 303 294 292 297 307 304 319 327
225 214 253 241 225 233 242 251 292 296 283 257 225 268 263 262 266 249 245 256 181 179 190 196 234 262 273 238 254 287 316 330 312 277 288 281 297 291 284 286 290 288 289 298 299
227 216 246 223 224 325 307 311 306 295 286 279 263 256 288 279 256 245 265 264 266 251 260 185 209 179 278 253 242 244 232 323 322 318 304 296 281 286 295 277 272 276 275 286 285
246 225 217 222 263 297 315 306 295 291 282 265 266 280 278 272 276 254 268 269 263 260 262 184 254 175 262 173 250 252 259 260 224 309 315 301 295 291 282 284 273 268 276 272 268
262 227 239 208 242 285 270 261 278 282 280 286 282 276 256 250 248 250 250 251 245 247 252 256 251 252 210 198 207 199 248 243 215 256 291 309 290 283 288 278 266 282 267 266 268
250 248 235 234 264 276 263 255 243 278 269 261 259 256 256 257 255 259 262 264 263 263 257 253 250 243 244 198 244 246 173 234 238 234 261 320 301 283 277 282 279 269 270 263 262
275 251 266 215 269 322 273 265 268 257 247 249 252 264 263 267 271 277 278 278 278 274 270 267 267 259 255 251 249 246 242 186 210 248 209 225 245 301 283 277 277 286 273 267 269
208 243 215 269 257 245 284 256 255 245 253 273 291 291 286 290 308 311 309 305 294 289 284 280 279 274 265 261 259 258 247 255 256 246 190 253 185 256 305 285 276 269 280 276 277
221 226 262 259 260 266 253 257 254 254 284 306 300 310 340 320 310 312 303 336 342 350 340 329 316 299 285 278 275 270 269 269 224 263 258 208 259 243 265 309 283 274 270 268 275
217 257 283 292 260 307 263 259 261 268 315 305 333 322 319 313 312 302 304 321 381 357 363 358 354 339 331 319 305 298 283 274 275 270 278 194 241 195 271 268 299 285 276 274 270
214 244 267 316 257 284 285 260 266 327 312 301 326 320 307 300 298 309 313 402 403 377 369 364 367 358 347 337 333 326 322 313 308 293 284 281 264 254 273 268 265 199 290 275 270
215 241 269 306 271 307 283 260 297 325 304 328 318 306 296 294 299 312 307 568 462 389 379 377 366 359 359 351 349 341 333 327 318 319 313 311 307 309 304 283 264 271 259 255 277
Wind_Speed
56 57 49 46 48 53 36 58 40 47 46 58 38 43 37 52 56 63 66 74 68 77 72 83 74 100 102 95 90 106 127 90 111 102 78 103 86 72 81 93 74 65 72 67 68
58 57 54 55 38 64 65 51 49 39 43 55 38 38 42 54 55 58 63 70 79 90 87 80 100 95 101 105 107 112 113 102 99 110 100 106 97 136 86 101 93 67 118 79 65
47 61 61 63 59 43 59 23 48 29 43 29 49 31 46 42 49 57 62 66 72 81 86 98 71 100 90 106 104 111 109 108 113 57 86 114 101 101 80 106 129 117 102 72 72
63 66 64 67 54 65 32 54 66 45 19 39 44 35 32 24 46 50 46 57 75 76 85 88 102 100 101 106 104 109 106 106 102 115 80 96 66 106 65 137 128 73 116 85 110
66 65 63 66 69 61 67 57 58 54 53 39 37 38 37 30 23 40 40 50 56 69 79 83 87 90 101 104 104 103 107 80 101 77 112 112 117 114 81 85 71 110 112 111 106
62 69 67 72 70 65 68 71 67 47 62 23 53 29 35 33 33 25 31 54 51 57 67 79 83 87 90 94 105 104 106 108 111 110 110 112 110 111 115 115 115 113 98 97 81
66 67 68 71 72 61 70 74 61 64 61 19 58 50 29 34 32 23 23 37 42 57 53 59 73 83 87 97 95 97 105 105 110 113 111 113 106 108 110 115 117 120 120 111 115
66 71 75 72 76 63 50 63 32 65 67 27 59 27 44 25 30 24 30 24 30 41 49 55 61 64 84 84 76 100 96 99 103 114 114 52 105 113 106 107 108 111 110 105 103
71 73 80 81 73 73 73 71 49 60 37 40 39 44 44 22 33 37 24 21 25 29 38 49 54 59 63 68 76 89 78 90 98 103 104 108 111 115 108 116 87 99 109 115 112
69 84 86 75 70 66 77 74 61 53 56 60 37 38 36 40 37 44 28 25 27 30 44 34 40 51 59 57 69 68 77 89 92 93 96 92 102 104 83 112 112 114 108 110 102
74 91 89 77 72 67 60 70 66 73 66 63 55 31 44 41 48 27 36 28 28 36 29 31 33 45 40 41 44 67 72 59 75 95 100 95 95 96 51 107 108 110 112 112 113
83 92 73 65 70 61 62 62 57 61 57 56 48 47 44 30 41 34 30 30 30 32 28 29 35 40 38 42 45 45 43 65 75 61 77 86 86 97 94 96 102 107 109 102 109
75 86 80 71 75 67 62 64 59 60 63 53 50 45 35 42 46 38 40 29 29 31 27 33 32 33 34 41 42 45 45 46 49 52 53 54 63 62 77 93 99 97 99 101 100
85 88 72 72 81 68 65 63 61 63 57 54 46 42 43 39 38 38 31 41 44 33 30 30 51 43 36 42 45 44 48 48 49 50 51 54 55 52 58 58 61 95 90 88 93
90 89 67 75 70 68 60 70 71 52 57 45 42 50 43 40 41 37 37 35 38 33 30 34 33 42 35 36 43 40 46 48 48 48 47 49 51 46 57 58 57 61 47 53 61
87 70 76 86 71 63 76 66 57 49 44 43 45 48 48 45 40 39 37 37 41 50 42 39 37 35 41 34 33 42 42 48 49 50 49 50 51 42 54 58 56 50 53 47 47
86 76 87 83 75 67 77 73 52 46 47 52 45 46 48 45 43 42 41 42 44 35 41 40 44 41 36 40 39 36 41 44 50 53 51 54 49 47 54 55 54 56 54 50 54
85 76 86 75 80 52 51 47 44 46 46 48 50 50 43 42 46 47 44 43 41 40 40 47 47 53 41 38 40 42 45 41 42 50 53 54 56 53 52 59 61 59 58 54 56
93 80 73 83 79 60 51 51 51 49 48 52 52 47 45 46 45 50 45 44 44 43 43 47 48 55 47 45 43 43 42 41 43 42 47 51 52 54 56 56 58 61 59 61 62
90 84 80 75 80 65 63 62 56 56 52 49 48 48 53 54 54 52 52 51 52 49 48 45 44 51 56 54 51 53 47 45 47 41 43 49 53 55 55 58 62 60 63 62 63
89 80 81 88 67 65 62 63 61 59 60 60 59 58 58 57 58 57 56 55 55 52 51 53 50 53 56 48 55 55 52 51 49 47 45 44 53 56 58 59 64 66 66 67 67
73 83 70 78 66 56 62 64 63 65 65 65 64 62 61 61 59 59 59 58 59 58 57 58 53 54 58 61 61 60 62 61 50 58 55 54 58 59 62 64 66 67 69 69 69
82 75 89 69 67 68 65 66 67 67 68 69 65 61 61 62 61 61 63 62 62 62 63 63 60 58 61 65 66 66 63 65 64 63 61 59 63 60 64 66 67 67 65 66 67
87 89 72 69 68 66 67 69 69 70 69 63 63 59 51 52 56 53 54 60 62 67 69 71 69 68 64 68 69 69 70 68 60 62 67 60 64 62 66 68 68 66 67 68 66
90 76 84 77 71 64 67 68 70 72 63 62 52 51 50 47 46 50 53 56 62 64 68 71 70 71 71 73 76 73 71 72 71 70 65 68 69 50 68 63 68 72 70 69 68
92 80 77 78 71 72 73 73 74 65 63 60 50 50 51 50 48 49 50 52 54 59 64 68 70 70 70 72 74 74 75 75 74 73 69 69 69 75 70 69 69 59 75 72 71
87 89 89 83 77 71 74 74 74 63 63 52 51 52 53 53 57 61 54 27 47 54 57 62 66 67 66 68 70 71 73 74 75 74 73 71 71 71 71 74 71 72 62 67 75
Wind_Direction
336 335 328 332 331 336 325 337 328 317 322 275 299 265 268 252 246 243 240 240 239 248 246 242 240 238 237 245 240 236 239 251 245 249 254 248 245 249 248 247 245 247 248 246 250
339 339 338 336 322 340 341 336 330 320 301 334 293 295 268 259 249 246 246 242 237 235 246 251 239 240 237 238 239 241 240 243 243 248 250 241 248 244 251 247 247 248 250 249 246
327 340 341 340 338 329 337 315 333 317 325 308 280 314 253 261 257 249 244 242 240 238 238 239 242 242 243 240 237 240 240 240 246 248 238 244 245 250 250 249 248 247 249 246 249
338 340 339 340 331 339 291 335 339 303 304 317 332 299 286 284 251 260 248 252 239 239 238 239 239 243 239 243 240 244 240 240 241 245 238 237 247 242 240 245 249 244 252 249 253
340 339 337 337 339 337 341 336 340 335 335 326 279 321 325 306 277 257 252 246 243 243 238 240 240 240 241 244 245 241 245 241 240 242 242 243 245 244 250 249 248 246 248 252 252
340 340 337 339 337 338 339 342 339 336 338 283 339 317 300 297 270 275 258 253 245 245 243 241 240 242 242 241 242 245 245 246 247 247 243 244 243 245 249 247 247 249 249 247 250
339 338 337 337 337 335 339 336 339 336 338 289 338 290 320 269 281 293 275 260 249 252 252 245 243 240 241 242 243 242 242 243 246 247 250 249 242 244 244 247 250 252 252 252 252
340 337 339 338 338 335 323 337 311 340 337 284 338 285 289 293 300 317 275 273 260 253 248 246 246 246 244 245 250 243 243 242 241 245 245 243 249 251 252 246 245 247 248 246 245
336 338 340 339 338 337 332 337 326 332 300 322 278 279 333 288 304 284 300 283 273 262 255 250 248 247 247 247 245 244 250 244 243 244 245 246 246 247 246 250 248 249 250 254 256
336 339 339 339 338 338 336 331 333 324 333 334 293 323 321 294 287 285 314 302 281 267 259 260 254 249 246 252 246 246 244 245 243 246 246 246 246 246 248 248 248 250 248 251 252
337 338 337 337 339 339 336 336 334 328 331 329 328 305 328 319 278 271 286 308 292 264 268 263 259 249 254 252 250 245 245 245 245 245 246 248 248 246 244 247 247 248 249 250 252
338 335 338 340 341 338 338 334 332 330 329 328 325 322 322 276 317 316 309 294 297 258 280 267 258 256 258 254 251 250 250 245 245 246 246 247 247 248 247 248 248 248 249 250 250
337 336 337 342 338 340 337 338 332 329 327 323 321 319 297 316 268 315 259 306 300 285 288 270 266 262 260 257 256 252 251 250 247 248 248 245 245 245 246 247 248 248 248 248 247
335 336 339 340 336 339 340 338 335 329 327 325 318 315 316 305 314 306 295 280 265 296 276 285 256 272 262 256 256 254 251 252 251 249 251 246 242 246 245 246 248 249 249 246 247
337 337 341 336 341 341 336 336 332 323 326 321 320 324 322 303 317 311 309 293 303 286 265 271 279 266 267 263 259 254 251 252 251 251 252 250 247 242 245 245 243 247 247 243 243
334 340 340 331 341 338 334 333 327 324 322 320 322 324 323 320 306 309 307 300 302 278 269 268 279 268 272 269 264 257 250 248 247 248 247 249 249 241 241 244 243 239 243 244 237
334 337 332 335 340 341 331 328 327 325 326 327 318 320 319 316 311 311 310 304 276 268 282 269 280 278 273 270 266 263 258 252 247 250 247 248 250 240 238 241 243 243 241 238 238
333 338 333 343 341 333 331 329 325 325 323 322 325 324 310 308 313 312 302 299 293 290 287 254 249 269 271 272 265 265 260 258 253 246 245 244 246 245 239 236 242 243 242 241 239
332 339 340 343 330 334 333 331 330 327 325 324 323 316 313 311 306 308 300 296 294 291 285 259 284 263 276 265 269 267 266 262 259 254 245 243 241 242 241 237 238 243 243 242 242
329 338 338 344 334 336 334 332 331 329 326 321 319 316 317 315 312 308 304 300 297 294 289 283 278 277 266 245 270 260 270 258 262 258 254 243 243 243 240 239 239 239 237 240 240
330 335 337 333 336 338 336 334 331 330 329 328 325 322 318 314 309 305 301 297 292 290 286 282 278 275 276 256 271 271 268 263 267 254 255 248 243 243 242 240 239 239 238 240 242
331 328 336 342 334 337 336 336 334 333 333 330 325 320 316 311 306 302 298 293 290 288 283 279 274 272 270 268 267 265 267 255 266 266 255 253 253 241 240 239 239 238 241 242 242
342 339 338 341 337 334 337 336 335 334 331 325 319 316 313 309 303 298 294 290 287 283 280 277 274 269 266 266 266 265 261 262 260 262 252 255 258 250 240 240 240 241 240 241 243
336 334 338 339 339 337 338 337 335 332 328 325 321 320 318 315 310 307 301 290 282 277 274 271 269 268 265 264 263 263 262 259 254 255 252 247 251 249 249 239 241 243 242 242 242
335 338 347 344 340 335 338 338 336 333 330 327 327 324 322 319 317 311 306 298 280 278 273 270 268 266 263 261 260 259 259 259 257 255 251 252 261 248 248 247 240 240 242 242 242
335 335 346 342 340 341 339 340 338 335 333 330 330 331 328 330 328 327 323 290 279 274 273 270 268 264 260 259 259 259 258 258 255 254 252 245 245 256 246 245 243 254 238 239 241
336 339 345 345 344 338 340 341 339 336 335 335 334 332 334 335 337 336 335 292 281 274 268 264 263 263 263 261 260 259 256 255 255 254 251 247 245 243 239 240 244 241 245 243 238